Home   Weather   Grand Rapids   Past weeks
Flag for USA

Past Weather in Grand Rapids, Michigan, USA — Yesterday and Last 2 Weeks

Now
52 °F

Clear.


Feels Like: 52 °F
Forecast: 72 / 54 °F
Wind: 3 mph from Southeast

Location: Kent County International Airport

Current Time: May 27, 2019 at 5:23:14 am

Latest Report: May 27, 2019 at 4:53 am


Visibility: 10 mi

Pressure: 30.06 "Hg

Humidity: 89%

Dew Point: 49 °F

Location of Grand RapidsLocation

Past Weather in Grand Rapids — Graph

°F

Grand Rapids Temperature Yesterday

Maximum temperature yesterday: 77 °F (at 6:53 pm)
Minimum temperature yesterday: 60 °F (at 11:53 pm)
Average temperature yesterday: 67 °F

High & Low Weather Summary for the Past Weeks

 TemperatureHumidityPressure
High77 °F (May 18, 5:53 pm)100% (May 18, 7:53 am)30.22 "Hg (May 18, 7:53 am)
Low40 °F (May 21, 2:53 am)31% (May 14, 4:53 pm)29.58 "Hg (May 19, 5:19 pm)
Average59 °F71%29.92 "Hg
* Reported May 12 3:53 am — May 27 3:53 am, Grand Rapids. Weather by CustomWeather, © 2019

Note: Actual official high and low records may vary slightly from our data, if they occured in-between our weather recording intervals... More about our weather records

Advertising

Grand Rapids Weather History for the Previous 24 Hours

Scroll right to see more
 ConditionsComfort  
Time TempWeatherWind HumidityBarometerVisibility
3:53 am
Mon, May 27
52 °FClear.No wind89%30.05 "Hg10 mi
2:53 am54 °FClear.3 mph83%30.05 "Hg10 mi
1:53 am58 °FClear.3 mph72%30.06 "Hg10 mi
12:53 am57 °FClear.No wind78%30.05 "Hg10 mi
11:53 pm
Sun, May 26
60 °FPassing clouds.6 mph72%30.07 "Hg10 mi
10:53 pm63 °FPassing clouds.6 mph65%30.06 "Hg10 mi
9:53 pm66 °FPassing clouds.6 mph59%30.03 "Hg10 mi
8:53 pm69 °FPassing clouds.No wind53%30.02 "Hg10 mi
7:53 pm74 °FPassing clouds.5 mph46%30.01 "Hg10 mi
6:53 pm77 °FPassing clouds.7 mph42%30.01 "Hg10 mi
5:53 pm74 °FScattered clouds.3 mph50%30.02 "Hg10 mi
4:53 pm72 °FScattered clouds.5 mph59%30.03 "Hg10 mi
3:53 pm73 °FBroken clouds.5 mph55%30.04 "Hg10 mi
2:53 pm71 °FBroken clouds.3 mph66%30.03 "Hg10 mi
1:53 pm67 °FPartly sunny.8 mph63%30.03 "Hg10 mi
12:53 pm66 °FOvercast.9 mph75%30.03 "Hg10 mi
11:53 am65 °FOvercast.6 mph78%30.03 "Hg10 mi
10:53 am63 °FOvercast.7 mph81%30.03 "Hg10 mi
9:53 am64 °FCloudy.7 mph81%30.03 "Hg10 mi
8:53 am63 °FLight rain. Mostly cloudy.5 mph73%30.01 "Hg10 mi
7:53 am62 °FMostly cloudy.6 mph80%29.99 "Hg10 mi
6:53 am62 °FCloudy.3 mph83%29.99 "Hg10 mi
5:53 am61 °FPassing clouds.6 mph87%29.97 "Hg10 mi
Weather by CustomWeather, © 2019

See weather overview